Regional Weather Roundup
Issued by NWS

Home | Current Version | Previous Version | Text Only | Print | Product List | Glossary Off
Versions: 1 2 3 4 5 6 7 8 9 10 11 12 13 14 15 16 17 18 19 20 21 22 23 24 25 26 27 28 29 30 31 32 33 34 35 36 37 38 39 40 41 42 43 44 45 46 47 48 49 50

000
ASUS43 KDMX 091907
RWRIA

WEATHER ROUNDUP FOR IOWA
NATIONAL WEATHER SERVICE DES MOINES IA
200 PM CDT WED JUL 09 2014

NOTE: "FAIR" INDICATES FEW OR NO CLOUDS BELOW 12,000 FEET WITH NO
SIGNIFICANT WEATHER AND/OR OBSTRUCTIONS TO VISIBILITY.

* - THESE STATIONS ARE NOT NWS STATIONS...THUS NOT UNDER NWS
QUALITY CONTROL.  THEY ALSO DO NOT REPORT WEATHER SUCH
AS PRECIPITATION OR FOG.

IAZ001>003-012>014-020>022-031>034-043>046-092000-
   NORTHWEST IOWA

CITY           SKY/WX    TMP DP  RH WIND       PRES   REMARKS
CARROLL *      MOSUNNY   77  57  50 W6G12     30.06F
CHEROKEE *     MOSUNNY   77  61  57 SW6       30.04F
DENISON *      MOSUNNY   77  61  57 W8        30.04F
LE MARS *      MOSUNNY   79  61  53 SW8       30.05F HX  80
ORANGE CITY *  MOSUNNY   79  57  47 W8        30.05F HX  80
SHELDON *      MOSUNNY   77  59  53 W9G15     30.03F
SIOUX CITY     MOSUNNY   81  61  50 VRB7      30.04F HX  82
SPENCER        PTSUNNY   77  56  48 W12       30.04F
STORM LAKE *   MOSUNNY   77  61  57 W8        30.06F
$$

IAZ055>058-069>071-079>083-090>094-092000-
   SOUTHWEST IOWA

CITY           SKY/WX    TMP DP  RH WIND       PRES   REMARKS
ATLANTIC *     MOSUNNY   79  57  47 NW5G12    30.06F HX  80
AUDUBON *      MOSUNNY   79  61  53 W3        30.08F HX  80
CLARINDA *     SUNNY     79  59  50 SW3       30.08F HX  80
COUNCIL BLFS * MOSUNNY   79  61  53 CALM      30.06S HX  80
CRESTON *      SUNNY     75  57  53 VRB6      30.08S HAZE
HARLAN  *      SUNNY     77  59  53 VRB5      30.09F
LAMONI         SUNNY     76  55  48 S3        30.06F
RED OAK *      SUNNY     79  61  53 S5        30.07S HX  80
SHENANDOAH *   SUNNY     79  61  53 CALM      30.07F HX  80
$$

IAZ047>049-059>061-072>074-084-092000-
   CENTRAL IOWA

CITY           SKY/WX    TMP DP  RH WIND       PRES   REMARKS
AMES           MOSUNNY   76  55  48 W8        30.04F
ANKENY *       SUNNY     77  55  47 W8        30.05F
CHARITON *     SUNNY     77  55  47 N6        30.06F
DES MOINES     MOSUNNY   80  54  40 N6        30.04F HX  80
GRINNELL*      MOSUNNY   75  55  50 NW3       30.06S
KNOXVILLE *    SUNNY     77  54  44 N9        30.04F
MARSHALLTOWN   MOSUNNY   75  55  49 N8        30.04F
PELLA *        SUNNY     79  55  44 NW8       30.06S
PERRY *          N/A     77  57  50 SW7       30.05F
$$

IAZ004>006-015-016-023>025-035-036-092000-
   NORTH CENTRAL IOWA

CITY           SKY/WX    TMP DP  RH WIND       PRES   REMARKS
ALGONA *       MOSUNNY   77  55  47 W8G15     30.03F
CLARION *      MOSUNNY   77  55  47 W7        30.04F
ESTHERVILLE    SUNNY     78  53  41 NW13      30.02F
FORT DODGE *   PTSUNNY   77  57  50 W3        30.05F
MASON CITY     MOSUNNY   77  55  46 NW8       30.04F
FOREST CITY *  MOSUNNY   75  55  50 N3G20     30.03F
IOWA FALLS *     N/A     75  54  46 W5        30.05F
$$

IAZ007>011-017>019-026>030-037>042-050>054-066-092000-
   NORTHEAST IOWA

CITY           SKY/WX    TMP DP  RH WIND       PRES   REMARKS
CEDAR RAPIDS   MOSUNNY   76  54  46 VRB5      30.03S
CHARLES CITY * PTSUNNY   73  55  53 NW12      30.04S
CLINTON *      PTSUNNY   73  55  53 NW10G18   30.04S
DECORAH *        N/A    N/A N/A N/A MISG        N/A
DUBUQUE        MOSUNNY   73  55  53 N10       30.02F
MONTICELLO *   MOSUNNY   75  57  53 NW8G15    30.02S
OELWEIN *      PTSUNNY   75 -35   1 NW8G14    30.04S
WATERLOO       MOSUNNY   78  53  41 VRB7      30.02F
$$

IAZ064-065-067-068-078-092000-
   EAST CENTRAL IOWA

CITY           SKY/WX    TMP DP  RH WIND       PRES   REMARKS
DAVENPORT      MOSUNNY   75  54  47 NW10      30.02F
IOWA CITY      SUNNY     76  55  48 VRB6      30.04F
MT. PLEASANT * SUNNY     77  50  38 NW3       30.03S
MUSCATINE *    MOSUNNY   77  55  47 N13       30.02F
QUAD CITIES    SUNNY     78  54  43 NW12      30.00F
$$

IAZ062-063-075>077-085>089-095>099-092000-
   SOUTHEAST IOWA

CITY           SKY/WX    TMP DP  RH WIND       PRES   REMARKS
BURLINGTON     MOSUNNY   78  53  41 N7G17     30.03S
FAIRFIELD *    SUNNY     75  55  50 CALM      30.05S
FORT MADISON * MOSUNNY   79  55  44 NW7       30.04S
KEOKUK *       MOSUNNY   77  57  50 NW7       30.03S
OSKALOOSA *      N/A     75  57  53 N7        30.05S
CENTERVILLE *  SUNNY     75  55  50 NW6       30.07F
OTTUMWA        SUNNY     77  58  51 NW7       30.05F
WASHINGTON *   SUNNY     75  55  50 VRB6G12   30.04S
$$

ABBREVIATIONS USED IN REMARKS
   TC - TEMPERATURES IN CELSIUS
  WCI - WIND CHILL INDEX
   HX - HEAT INDEX
  VSB - VISIBILITY
$$




USA.gov is the U.S. government's official web portal to all federal, state and local government web resources and services.